Weather in Zatec

Czech Republic     50°19′23″N   13°32′36″E
temp.,
°C
wind,
m/s
gust,
m/s
humid.,
%
clouds,
%
prec.,
mm/h
press.,
hPa
HPBL,
m
19 september, sun
sun1923:00+13nnw258683 0.0 1016272
02:00+11nne239257 0.1 1017136
05:00+10nw119098 0.0 101717
08:00+11ene1286100 0.1 1016118
11:00+13ene237368 0.1 1016490
14:00+16ne335578 0.1 10151379
17:00+15nne555668 0.0 10151152
20:00+10n237317 0.0 101639
20 september, mon
mon2023:00+8nnw118319 0.0 101811
02:00+7nw118594 0.0 101811
05:00+6nnw1185100 0.0 101810
08:00+7n118022 0.0 102064
11:00+11ene336790 0.0 1020558
14:00+13ne115444 0.0 10201147
17:00+14nw024731 0.0 10201404
20:00+11ne376295 0.0 1022286
21 september, tue
tue2123:00+9n22717 0.0 102453
02:00+6nw118017 0.0 102511
05:00+6nw117960 0.0 102611
08:00+7nnw127326 0.0 102894
11:00+12ne335221 0.0 10281218
14:00+14nne224493 0.0 10271608
17:00+14nne3344100 0.0 10271589
20:00+9n3466100 0.0 103058
22 september, wed
wed2223:00+8nw227188 0.0 103011
02:00+6wnw117564 0.0 103011
05:00+6wnw1175100 0.0 102910
08:00+7w1172100 0.0 102931
11:00+13n1253100 0.0 1028700
14:00+15nne2347100 0.0 10261302
17:00+16nne2347100 0.0 10241336
20:00+11ne11695 0.0 102411
23 september, thu
thu2323:00+9w11785 0.0 102410
02:00+8wsw128319 0.0 102310
05:00+7sw228497 0.0 102113
08:00+8sw227911 0.0 102071
11:00+16wsw3550100 0.0 1017625
14:00+18wsw5742100 0.0 10151127
17:00+18w4747100 0.0 1013800
20:00+13wsw4860100 0.0 1014193